FW6636 Weather Reports


time (UTC)temp
C
wind
direction
speed
KPH
gust
KPH
rain 1hr
cm
rain 24hr
cm
rain mn
cm
humidity
%
barometer
mb
20260507000552 12 318 3.2 24.1 0.03 1.14 1.14 84 1009.4
20260507000059 12 309 3.2 24.1 0.03 1.14 1.14 85 1009.4
20260506235554 13 323 9.7 24.1 0.03 1.14 1.14 84 1009.2
20260506235055 13 8 6.4 24.1 0.03 1.14 1.14 85 1008.8
20260506234555 14 315 6.4 24.1 0.03 1.14 1.14 85 1008.7
20260506234052 15 50 8.0 16.1 0.03 1.14 1.14 87 1008.6
20260506233553 16 270 3.2 8.0 0.00 1.12 1.12 90 1008.2
20260506233057 16 216 3.2 8.0 0.00 1.12 1.12 90 1008.0
20260506232552 16 247 1.6 6.4 0.00 1.12 1.12 90 1007.8
20260506232052 16 268 0.0 4.8 0.00 1.12 1.12 90 1007.8
20260506231552 16 0 0.0 4.8 0.00 1.12 1.12 90 1007.6
20260506231055 16 0 0.0 4.8 0.00 1.12 1.12 90 1007.6
20260506230552 16 0 0.0 6.4 0.00 1.12 1.12 90 1007.6
20260506230103 16 232 1.6 6.4 0.00 1.12 1.12 90 1007.5
20260506225552 16 230 3.2 6.4 0.00 1.12 1.12 89 1007.7
20260506225053 16 255 3.2 6.4 0.00 1.12 1.12 90 1007.8
20260506224554 16 261 3.2 6.4 0.00 1.12 1.12 89 1007.7
20260506224051 16 231 1.6 6.4 0.00 1.12 1.12 89 1007.6
20260506223551 16 200 1.6 8.0 0.00 1.12 1.12 89 1007.5
20260506223052 16 253 3.2 11.3 0.00 1.12 1.12 88 1007.5
20260506222553 16 210 4.8 11.3 0.00 1.12 1.12 88 1007.6
20260506222053 17 245 3.2 11.3 0.00 1.12 1.12 87 1007.5
20260506221558 17 198 4.8 14.5 0.00 1.12 1.12 87 1007.5
20260506221052 17 265 3.2 14.5 0.00 1.12 1.12 87 1007.4
20260506220552 17 246 4.8 12.9 0.00 1.12 1.12 86 1007.3
20260506220057 17 254 6.4 12.9 0.00 1.12 1.12 87 1007.3
20260506215556 17 296 4.8 16.1 0.00 1.12 1.12 87 1007.3
20260506215053 17 252 6.4 17.7 0.00 1.12 1.12 87 1007.3
20260506214554 17 217 8.0 19.3 0.00 1.12 1.12 87 1007.2
20260506214052 17 233 6.4 19.3 0.00 1.12 1.12 87 1007.2
20260506213552 17 292 4.8 19.3 0.00 1.12 1.12 87 1007.1
20260506213054 17 215 4.8 17.7 0.00 1.12 1.12 88 1007.1
20260506212555 17 206 6.4 17.7 0.00 1.12 1.12 88 1007.0
20260506212052 16 234 6.4 17.7 0.00 1.12 1.12 88 1007.1
20260506211554 16 217 8.0 14.5 0.00 1.12 1.12 88 1007.0
20260506211053 16 186 3.2 14.5 0.00 1.12 1.12 88 1006.9
20260506210552 16 227 3.2 14.5 0.00 1.12 1.12 89 1006.9
20260506210055 16 263 4.8 12.9 0.00 1.12 1.12 89 1006.9
20260506205553 16 202 6.4 16.1 0.00 1.12 1.12 89 1007.0
20260506205052 16 292 8.0 16.1 0.00 1.12 1.12 89 1006.9
20260506204555 16 213 4.8 14.5 0.00 1.12 1.12 90 1007.0
20260506204053 16 218 6.4 16.1 0.00 1.12 1.12 90 1006.9
20260506203552 16 217 6.4 16.1 0.00 1.12 1.12 90 1006.8
20260506203059 16 221 4.8 14.5 0.00 1.12 1.12 90 1006.9
20260506202552 16 229 6.4 16.1 0.00 1.12 1.12 90 1006.8
20260506202052 16 252 4.8 16.1 0.00 1.12 1.12 90 1006.9
20260506201610 16 261 4.8 11.3 0.00 1.12 1.12 90 1006.9
20260506201053 16 277 4.8 12.9 0.00 1.12 1.12 91 1006.8
20260506200550 16 252 6.4 12.9 0.00 1.12 1.12 91 1006.9
20260506200054 16 279 3.2 14.5 0.00 1.12 1.12 91 1006.9
20260506195552 16 275 3.2 14.5 0.00 1.12 1.12 91 1006.9
20260506195054 16 224 3.2 12.9 0.00 1.12 1.12 91 1007.0
20260506194556 16 252 4.8 12.9 0.00 1.12 1.12 91 1006.9
20260506194048 16 0 1.6 11.3 0.00 1.12 1.12 91 1006.9
20260506193550 16 235 4.8 12.9 0.00 1.12 1.12 91 1007.1
20260506193058 16 199 6.4 12.9 0.00 1.12 1.12 91 1007.0
20260506192552 16 225 4.8 14.5 0.00 1.12 1.12 91 1007.1
20260506192052 16 196 4.8 17.7 0.03 1.12 1.12 91 1007.2
20260506191559 16 250 4.8 17.7 0.03 1.12 1.12 91 1007.2
20260506191053 16 203 9.7 17.7 0.03 1.12 1.12 91 1007.3
20260506190555 16 192 8.0 20.9 0.05 1.12 1.12 91 1007.2
20260506190054 16 187 11.3 22.5 0.08 1.12 1.12 91 1007.2
20260506185552 16 182 9.7 27.4 0.08 1.12 1.12 92 1007.4
20260506185052 15 195 11.3 27.4 0.10 1.12 1.12 91 1007.3
20260506184601 15 235 6.4 19.3 0.13 1.12 1.12 92 1007.4
20260506184052 15 217 6.4 14.5 0.15 1.12 1.12 92 1007.5
20260506183555 15 236 6.4 16.1 0.18 1.12 1.12 92 1007.5
20260506183050 15 182 6.4 16.1 0.20 1.12 1.12 92 1007.6
20260506182556 15 193 6.4 16.1 0.23 1.12 1.12 92 1007.6
20260506182053 15 184 4.8 16.1 0.23 1.09 1.09 91 1007.6
20260506181555 15 181 4.8 12.9 0.23 1.09 1.09 92 1007.6
20260506181053 15 227 6.4 14.5 0.25 1.09 1.09 92 1007.6
20260506180552 15 168 8.0 14.5 0.23 1.07 1.07 91 1007.7
20260506180056 15 236 8.0 19.3 0.23 1.04 1.04 91 1007.8
20260506175553 15 204 9.7 20.9 0.25 1.04 1.04 91 1007.6
20260506175054 15 201 11.3 20.9 0.25 1.02 1.02 91 1007.6
20260506174554 15 177 9.7 17.7 0.25 0.99 0.99 91 1007.8
20260506174049 15 196 6.4 16.1 0.28 0.97 0.97 91 1007.8
20260506173554 15 181 8.0 16.1 0.30 0.94 0.94 91 1007.7
20260506173113 15 193 3.2 16.1 0.28 0.91 0.91 91 1007.8
20260506172552 15 219 6.4 14.5 0.25 0.89 0.89 91 1007.9
20260506172052 15 183 6.4 19.3 0.23 0.86 0.86 91 1007.9
20260506171557 15 176 8.0 20.9 0.23 0.86 0.86 91 1007.9
20260506171052 15 221 11.3 20.9 0.23 0.84 0.84 91 1007.9
20260506170551 15 204 9.7 19.3 0.23 0.84 0.84 91 1007.9
20260506170057 15 195 9.7 22.5 0.20 0.81 0.81 91 1007.9
20260506165553 15 175 9.7 25.7 0.18 0.79 0.79 91 1008.0
20260506165049 15 202 11.3 25.7 0.15 0.76 0.76 90 1007.9
20260506164555 15 205 11.3 20.9 0.15 0.74 0.74 90 1007.9
20260506164051 15 190 9.7 24.1 0.13 0.69 0.69 90 1007.9
20260506163548 15 198 9.7 24.1 0.10 0.64 0.64 90 1007.9
20260506163103 15 187 12.9 25.7 0.13 0.64 0.64 90 1008.0
20260506162552 15 177 11.3 27.4 0.15 0.64 0.64 90 1008.0
20260506162049 15 216 16.1 27.4 0.20 0.64 0.64 90 1008.0
20260506161600 15 181 12.9 27.4 0.23 0.64 0.64 90 1008.0
20260506161048 15 177 11.3 22.5 0.23 0.61 0.61 90 1008.1
20260506160552 15 196 11.3 22.5 0.23 0.61 0.61 90 1008.0
20260506160057 15 209 11.3 29.0 0.25 0.61 0.61 90 1008.1
20260506155552 15 188 16.1 29.0 0.25 0.61 0.61 90 1008.0
20260506155049 15 179 11.3 29.0 0.28 0.61 0.61 90 1008.1
20260506154600 15 178 14.5 29.0 0.28 0.58 0.58 90 1008.1
20260506154052 15 189 11.3 20.9 0.28 0.56 0.56 90 1008.3
20260506153551 15 188 11.3 25.7 0.25 0.53 0.53 90 1008.1
20260506153056 15 175 11.3 25.7 0.25 0.51 0.51 89 1008.2
20260506152553 15 161 11.3 22.5 0.23 0.48 0.48 89 1008.5
20260506152054 15 187 12.9 24.1 0.20 0.43 0.43 89 1008.7
20260506151555 15 221 9.7 24.1 0.20 0.41 0.41 89 1008.8
20260506151051 15 185 11.3 22.5 0.20 0.38 0.38 89 1008.9
20260506150549 15 169 9.7 22.5 0.20 0.38 0.38 89 1008.7
20260506150057 15 181 11.3 22.5 0.20 0.36 0.36 89 1008.6
20260506145556 15 156 11.3 20.9 0.20 0.36 0.36 89 1008.6
20260506145052 15 189 8.0 17.7 0.20 0.33 0.33 89 1008.6
20260506144559 15 187 8.0 17.7 0.18 0.30 0.30 89 1008.4
20260506144054 15 146 9.7 20.9 0.15 0.28 0.28 89 1008.5
20260506143552 15 179 8.0 20.9 0.18 0.28 0.28 89 1008.5
20260506143056 15 174 4.8 11.3 0.15 0.25 0.25 89 1008.5
20260506142553 15 198 4.8 16.1 0.18 0.25 0.25 89 1008.5
20260506142052 15 182 4.8 19.3 0.18 0.23 0.23 89 1008.7
20260506141600 15 183 9.7 22.5 0.15 0.20 0.20 88 1008.7
20260506141052 15 188 9.7 22.5 0.15 0.18 0.18 88 1009.0
20260506140552 15 190 9.7 19.3 0.15 0.18 0.18 88 1009.0
20260506135548 15 179 8.0 17.7 0.13 0.15 0.15 88 1008.9
20260506135051 15 154 9.7 20.9 0.13 0.13 0.13 88 1008.8
20260506134557 15 181 8.0 22.5 0.13 0.13 0.13 87 1008.9
20260506134052 15 184 9.7 24.1 0.13 0.13 0.13 87 1008.8
20260506133552 15 218 12.9 24.1 0.10 0.10 0.10 87 1009.0
20260506133101 15 187 11.3 19.3 0.10 0.10 0.10 86 1009.1
20260506132549 15 198 11.3 17.7 0.08 0.08 0.08 86 1009.1
20260506132054 15 183 9.7 19.3 0.05 0.05 0.05 85 1009.2
20260506131553 15 221 9.7 20.9 0.05 0.05 0.05 84 1009.0
20260506131052 16 198 11.3 22.5 0.03 0.03 0.03 84 1009.0
20260506130549 16 217 9.7 24.1 0.03 0.03 0.03 84 1009.2
20260506130054 16 184 11.3 24.1 0.03 0.03 0.03 83 1009.2
20260506125557 16 197 12.9 24.1 0.03 0.03 0.03 83 1009.3
20260506125052 16 187 11.3 38.6 0.00 0.00 0.00 82 1009.2
20260506124600 16 172 14.5 38.6 0.00 0.00 0.00 81 1009.2
20260506124053 16 173 8.0 27.4 0.00 0.00 0.00 81 1009.2
20260506123549 16 195 11.3 27.4 0.00 0.00 0.00 80 1009.0
20260506123051 16 156 9.7 24.1 0.00 0.00 0.00 79 1008.9
20260506122552 16 202 11.3 24.1 0.00 0.00 0.00 78 1009.1
20260506122052 16 202 11.3 22.5 0.00 0.00 0.00 77 1009.1
20260506121600 16 193 11.3 22.5 0.00 0.00 0.00 77 1008.9
20260506121052 16 151 11.3 22.5 0.00 0.00 0.00 78 1008.9
20260506120552 16 183 9.7 22.5 0.00 0.00 0.00 78 1008.8
20260506120108 16 245 9.7 20.9 0.00 0.00 0.00 79 1008.8
20260506115549 16 197 4.8 11.3 0.00 0.00 0.00 79 1008.8
20260506115048 16 203 3.2 16.1 0.00 0.00 0.00 81 1008.9
20260506114610 16 183 6.4 16.1 0.00 0.00 0.00 78 1008.9
20260506114048 16 199 1.6 16.1 0.00 0.00 0.00 77 1008.9
20260506113548 17 192 6.4 25.7 0.00 0.00 0.00 76 1008.8
20260506113054 17 200 6.4 25.7 0.00 0.00 0.00 75 1008.9
20260506112548 17 200 6.4 16.1 0.00 0.00 0.00 74 1008.9
20260506112052 17 197 8.0 17.7 0.00 0.00 0.00 73 1009.0
20260506111555 17 199 9.7 17.7 0.00 0.00 0.00 73 1009.0
20260506111052 17 183 8.0 20.9 0.00 0.00 0.00 72 1008.9
20260506110553 17 197 8.0 24.1 0.00 0.00 0.00 72 1008.8
20260506110051 17 179 8.0 24.1 0.00 0.00 0.00 71 1008.7
20260506105551 17 224 3.2 11.3 0.00 0.00 0.00 71 1008.8
20260506105052 17 198 0.0 8.0 0.00 0.00 0.00 70 1008.6
20260506104555 17 0 0.0 8.0 0.00 0.00 0.00 70 1008.6
20260506104052 17 210 3.2 9.7 0.00 0.00 0.00 70 1008.5
20260506103549 17 0 1.6 11.3 0.00 0.00 0.00 70 1008.3
20260506103052 17 217 3.2 11.3 0.00 0.00 0.00 70 1008.4
20260506102552 17 240 4.8 9.7 0.00 0.00 0.00 70 1008.4
20260506102052 17 210 3.2 9.7 0.00 0.00 0.00 70 1008.4
20260506101550 17 199 4.8 9.7 0.00 0.00 0.00 69 1008.3
20260506101048 17 197 4.8 9.7 0.00 0.00 0.00 69 1008.2
20260506100549 17 192 3.2 11.3 0.00 0.00 0.00 68 1008.3
20260506100054 17 187 3.2 11.3 0.00 0.00 0.00 68 1008.2
20260506095552 17 191 4.8 11.3 0.00 0.00 0.00 67 1008.2
20260506095052 17 200 1.6 8.0 0.00 0.00 0.00 67 1008.3
20260506094556 17 0 1.6 6.4 0.00 0.00 0.00 67 1008.4
20260506094052 17 244 1.6 8.0 0.00 0.00 0.00 67 1008.5
20260506093552 17 175 0.0 8.0 0.00 0.00 0.00 67 1008.4
20260506093108 17 202 1.6 6.4 0.00 0.00 0.00 67 1008.3
20260506092552 16 0 0.0 0.0 0.00 0.00 0.00 67 1008.3
20260506092052 17 0 0.0 6.4 0.00 0.00 0.00 67 1008.5
20260506091551 17 0 0.0 6.4 0.00 0.00 0.00 67 1008.5
20260506091052 17 179 0.0 9.7 0.00 0.00 0.00 65 1008.5
20260506090549 17 207 1.6 16.1 0.00 0.00 0.00 64 1008.5
20260506085552 17 217 4.8 12.9 0.00 0.25 0.00 63 1008.4
20260506085049 17 215 3.2 9.7 0.00 0.25 0.00 63 1008.5
20260506084556 17 252 3.2 8.0 0.00 0.25 0.00 62 1008.4
20260506084052 17 195 1.6 8.0 0.00 0.25 0.00 62 1008.5
20260506083552 17 270 3.2 8.0 0.00 0.25 0.00 62 1008.5
20260506083058 17 265 3.2 9.7 0.00 0.25 0.00 62 1008.6
20260506082556 17 231 3.2 9.7 0.00 0.25 0.00 62 1008.6
20260506082052 17 254 4.8 9.7 0.00 0.25 0.00 61 1008.6
20260506081557 17 240 1.6 8.0 0.00 0.25 0.00 62 1008.6
20260506081052 18 205 3.2 9.7 0.00 0.25 0.00 61 1008.5
20260506080552 18 181 4.8 14.5 0.00 0.25 0.00 61 1008.5
20260506080110 18 245 6.4 14.5 0.00 0.25 0.00 60 1008.5
20260506073111 18 220 6.4 16.1 0.00 0.25 0.00 59 1008.7
20260506072551 18 193 6.4 22.5 0.00 0.25 0.00 59 1008.8
20260506072054 18 204 11.3 22.5 0.00 0.25 0.00 58 1008.7
20260506071557 18 203 9.7 20.9 0.00 0.25 0.00 58 1008.8
20260506071048 18 175 9.7 17.7 0.00 0.25 0.00 58 1008.8
20260506070551 18 194 9.7 19.3 0.00 0.25 0.00 57 1008.9
20260506062052 18 204 4.8 17.7 0.00 0.25 0.00 55 1009.2
20260506061604 18 210 6.4 17.7 0.00 0.25 0.00 54 1009.2
20260506061052 18 242 6.4 17.7 0.00 0.25 0.00 54 1009.2
20260506060550 18 192 4.8 17.7 0.00 0.25 0.00 54 1009.3
20260506051049 19 219 9.7 16.1 0.00 0.25 0.00 52 1009.7
20260506050549 19 244 9.7 19.3 0.00 0.25 0.00 51 1009.7
20260506045049 19 194 6.4 16.1 0.00 0.25 0.00 51 1009.8
20260506044611 19 200 8.0 17.7 0.00 0.25 0.00 51 1009.8
20260506044051 19 223 9.7 19.3 0.00 0.25 0.00 51 1009.7
20260506043553 19 186 9.7 19.3 0.00 0.25 0.00 51 1009.8
20260506043056 19 224 8.0 19.3 0.00 0.25 0.00 51 1009.8
20260506042552 19 182 6.4 16.1 0.00 0.25 0.00 51 1009.8
20260506042052 19 205 8.0 16.1 0.00 0.25 0.00 51 1009.7
20260506041608 19 185 8.0 16.1 0.00 0.25 0.00 51 1009.7
20260506041050 19 238 6.4 14.5 0.00 0.25 0.00 51 1009.8
20260506040548 19 185 6.4 14.5 0.00 0.25 0.00 51 1009.9
20260506040056 19 256 6.4 11.3 0.00 0.25 0.00 51 1009.8
20260506035549 19 206 4.8 12.9 0.00 0.25 0.25 50 1009.8
20260506035048 19 256 6.4 12.9 0.00 0.25 0.25 51 1009.8
20260506034558 19 193 3.2 11.3 0.00 0.25 0.25 50 1009.8
20260506034051 19 213 4.8 11.3 0.00 0.25 0.25 49 1009.8
20260506033551 19 214 4.8 11.3 0.00 0.25 0.25 50 1009.7
20260506033055 19 225 3.2 11.3 0.00 0.25 0.25 50 1009.7
20260506032552 19 195 4.8 14.5 0.00 0.25 0.25 50 1009.7
20260506032049 19 219 6.4 17.7 0.00 0.25 0.25 52 1009.8
20260506031551 20 194 8.0 22.5 0.00 0.25 0.25 49 1009.7
20260506031052 20 190 9.7 22.5 0.00 0.25 0.25 49 1009.7
20260506030549 20 213 14.5 24.1 0.00 0.25 0.25 48 1009.6
20260506030055 20 204 12.9 24.1 0.00 0.25 0.25 48 1009.7
20260506025553 20 204 12.9 19.3 0.00 0.25 0.25 48 1009.7
20260506025051 20 181 11.3 19.3 0.00 0.25 0.25 49 1009.7
20260506024558 20 190 11.3 17.7 0.00 0.25 0.25 49 1009.8
20260506024049 20 184 9.7 17.7 0.00 0.25 0.25 49 1009.8
20260506023551 20 181 9.7 17.7 0.00 0.25 0.25 48 1009.7
20260506023056 20 194 9.7 19.3 0.00 0.25 0.25 49 1009.8
20260506022548 20 167 8.0 20.9 0.00 0.25 0.25 49 1009.7
20260506022049 20 161 6.4 22.5 0.00 0.25 0.25 48 1009.8
20260506021551 20 189 11.3 22.5 0.00 0.25 0.25 47 1009.8
20260506021052 19 199 6.4 12.9 0.00 0.25 0.25 51 1009.8
20260506020548 19 197 1.6 11.3 0.00 0.25 0.25 47 1009.7
20260506020121 20 0 0.0 11.3 0.00 0.25 0.25 47 1009.8
20260506015553 20 0 3.2 11.3 0.00 0.25 0.25 45 1009.8
20260506015052 20 200 3.2 11.3 0.00 0.25 0.25 44 1009.7
20260506014552 21 200 4.8 9.7 0.00 0.25 0.25 44 1009.6
20260506014051 21 190 3.2 12.9 0.00 0.25 0.25 46 1009.6
20260506013548 21 201 6.4 14.5 0.00 0.25 0.25 42 1009.6
20260506013050 21 229 4.8 14.5 0.00 0.25 0.25 42 1009.5
20260506012551 21 208 6.4 16.1 0.00 0.25 0.25 42 1009.4
20260506012048 21 212 4.8 16.1 0.00 0.25 0.25 43 1009.3
20260506011553 21 199 8.0 17.7 0.00 0.25 0.25 43 1009.3
20260506011048 21 202 9.7 17.7 0.00 0.25 0.25 43 1009.2
20260506010548 22 189 9.7 20.9 0.00 0.25 0.25 42 1009.1
20260506010058 22 199 11.3 20.9 0.00 0.25 0.25 41 1009.1
20260506005548 22 194 11.3 20.9 0.00 0.25 0.25 41 1009.0
20260506005049 22 179 11.3 22.5 0.00 0.25 0.25 41 1008.8
20260506004600 22 201 11.3 22.5 0.00 0.25 0.25 42 1008.8
20260506004049 22 188 12.9 22.5 0.00 0.25 0.25 41 1008.9
20260506003549 22 155 11.3 19.3 0.00 0.25 0.25 42 1008.8
20260506003058 22 165 11.3 22.5 0.00 0.25 0.25 43 1008.8
20260506002548 22 169 12.9 25.7 0.00 0.25 0.25 43 1008.8
20260506002051 22 173 12.9 25.7 0.00 0.25 0.25 40 1008.8
20260506001608 22 181 9.7 17.7 0.00 0.25 0.25 40 1008.8
20260506001052 22 193 8.0 19.3 0.00 0.25 0.25 41 1008.7